This demonstration page uses our WeatherBlox Daily Observations layout. Learn more.

Hourly Observations for June 20, 2020

Temp ( °F °C ) Dew Point ( °F °C ) Humidity (%) Winds ( mph kmh ) Pressure ( in mb ) Visibility ( mi km ) Precip ( " mm )
12:15 am 00:15 Cloudy with Heavy Rain 64 17.8 63 17.3 97 97 Calm 30.02 1016 3 4.82802 0.08 2.032
12:35 am 00:35 Cloudy with Heavy Rain 64 17.6 63 17.1 97 97 NNW 7 11 30 1016 2.5 4.02335 0.17 4.318
12:55 am 00:55 Cloudy with Light Rain 64 17.5 63 17.1 98 98 N 7 11 29.98 1015 4 6.43736 0.2 5.08
1:15 am 01:15 Cloudy with Rain 64 17.5 63 17 97 97 E 13 20 29.92 1013 3 4.82802 0.02 0.508
1:35 am 01:35 Cloudy with Mist and Fog 64 17.6 63 17.2 98 98 ESE 8 13 29.94 1014 3 4.82802 0.02 0.508
1:55 am 01:55 Cloudy with Mist and Fog 64 17.8 64 17.5 98 98 ESE 7 11 29.95 1014 4 6.43736 0.02 0.508
2:15 am 02:15 Cloudy with Mist and Fog 64 17.8 64 17.5 98 98 Calm 29.96 1014 4 6.43736 0 0
2:35 am 02:35 Cloudy with Mist and Fog 64 18 64 17.5 97 97 Calm 29.95 1014 4 6.43736 0 0
2:55 am 02:55 Cloudy with Mist and Fog 64 18 64 17.5 97 97 Calm 29.94 1014 5 8.0467 0 0
3:15 am 03:15 Cloudy with Mist and Fog 64 17.9 64 17.5 98 98 Calm 29.93 1014 3 4.82802 0 0
3:35 am 03:35 Cloudy with Mist and Fog 64 17.7 63 17.3 98 98 NW 3 6 29.93 1013 2.5 4.02335 0 0
3:55 am 03:55 Mostly Cloudy with Mist and Fog 64 17.5 63 17 97 97 NNW 3 6 29.93 1013 2.5 4.02335 0 0
4:15 am 04:15 Mostly Cloudy with Mist and Fog 63 17.2 63 17 99 99 Calm 29.93 1014 3 4.82802 0 0
4:35 am 04:35 Cloudy with Mist and Fog 63 17.1 62 16.8 98 98 NW 3 6 29.94 1014 4 6.43736 0 0
4:55 am 04:55 Mostly Cloudy with Mist and Fog 62 16.8 62 16.4 98 98 Calm 29.94 1014 5 8.0467 0 0
5:15 am 05:15 Partly Cloudy with Mist and Fog 62 16.4 61 16 98 98 Calm 29.95 1014 5 8.0467 0 0
5:35 am 05:35 Partly Cloudy with Mist and Fog 61 16.1 60 15.7 97 97 Calm 29.97 1015 3 4.82802 0 0
5:55 am 05:55 Cloudy 62 16.6 61 16.3 98 98 Calm 29.98 1015 7 11.26538 0 0
6:15 am 06:15 Cloudy with Mist and Fog 63 17 62 16.5 97 97 Calm 29.97 1015 5 8.0467 0 0
6:35 am 06:35 Mostly Cloudy with Mist and Fog 62 16.8 62 16.5 98 98 Calm 29.96 1015 4 6.43736 0 0
6:55 am 06:55 Partly Cloudy with Mist and Fog 62 16.5 61 16.1 98 98 Calm 29.97 1015 3 4.82802 0 0
7:15 am 07:15 Sunny with Mist and Fog 62 16.8 62 16.5 98 98 Calm 29.96 1015 4 6.43736 0 0
7:35 am 07:35 Sunny with Mist and Fog 63 17.2 62 16.7 97 97 Calm 29.96 1015 5 8.0467 0 0
7:55 am 07:55 Sunny 64 18 63 17.1 95 95 Calm 29.95 1014 7 11.26538 0 0
8:15 am 08:15 Partly Cloudy 65 18.6 63 17 90 90 Calm 29.95 1014 10 16.0934 0 0
8:35 am 08:35 Mostly Cloudy 65 18.5 62 16.7 89 89 Calm 29.95 1014 10 16.0934 0 0
8:55 am 08:55 Cloudy 65 18.6 63 17 90 90 WNW 5 7 29.96 1015 10 16.0934 0 0
9:15 am 09:15 Cloudy 66 18.8 63 17 89 89 NW 3 6 29.97 1015 10 16.0934 0 0
9:35 am 09:35 Cloudy 66 19 63 17 88 88 Calm 29.96 1014 10 16.0934 0 0
9:55 am 09:55 Cloudy 67 19.3 63 17.2 88 88 Calm 29.94 1014 10 16.0934 0 0
10:15 am 10:15 Cloudy 67 19.5 63 17.1 86 86 W 3 6 29.94 1014 10 16.0934 0 0
10:35 am 10:35 Cloudy 67 19.6 63 17.1 86 86 WSW 3 6 29.93 1014 10 16.0934 0 0
10:55 am 10:55 Cloudy 69 20.3 63 17 81 81 WSW 3 6 29.92 1013 10 16.0934 0 0
11:15 am 11:15 Cloudy 68 20.2 62 16.9 81 81 SW 5 7 29.93 1013 10 16.0934 0 0
11:35 am 11:35 Cloudy 70 21.1 63 17.4 80 80 SW 3 6 29.92 1013 10 16.0934 0 0
11:55 am 11:55 Mostly Cloudy 71 21.7 63 17 75 75 W 7 11 29.9 1013 10 16.0934 0 0
12:15 pm 12:15 Partly Cloudy 72 22.1 62 16.5 71 71 W 7 11 29.9 1013 10 16.0934 0 0
12:35 pm 12:35 Partly Cloudy 73 23 63 17 69 69 W 8 13 29.88 1012 10 16.0934 0 0
12:55 pm 12:55 Partly Cloudy 73 22.9 62 16.4 67 67 Calm 29.87 1012 10 16.0934 0 0
1:15 pm 13:15 Sunny 74 23.4 61 16.2 64 64 WNW 3 6 29.87 1011 10 16.0934 0 0
1:35 pm 13:35 Partly Cloudy 76 24.4 63 17.2 64 64 SSW 6 9 29.85 1011 10 16.0934 0 0
1:55 pm 13:55 Partly Cloudy 76 24.4 62 16.4 61 61 Calm 29.85 1011 7 11.26538 0 0
2:15 pm 14:15 Partly Cloudy 76 24.5 62 16.7 62 62 Calm 29.84 1011 10 16.0934 0 0
2:35 pm 14:35 Hazy 77 25.2 61 16.2 58 58 Calm 29.84 1010 5 8.0467 0 0
2:55 pm 14:55 Sunny 78 25.6 62 16.7 58 58 SSW 9 15 29.82 1010 10 16.0934 0 0
3:15 pm 15:15 Partly Cloudy 79 26 61 16.3 55 55 SE 7 11 29.81 1009 7 11.26538 0 0
3:35 pm 15:35 Partly Cloudy 79 25.9 61 15.9 54 54 S 6 9 29.8 1009 10 16.0934 0 0
3:55 pm 15:55 Partly Cloudy 80 26.6 61 16 52 52 S 5 7 29.79 1009 10 16.0934 0 0
4:15 pm 16:15 Partly Cloudy 80 26.7 60 15.8 51 51 SSE 7 11 29.78 1009 10 16.0934 0 0
4:35 pm 16:35 Sunny 81 27 61 15.9 51 51 SSE 7 11 29.78 1009 10 16.0934 0 0
4:55 pm 16:55 Sunny 82 27.5 62 16.5 51 51 S 10 17 29.76 1008 10 16.0934 0 0
5:15 pm 17:15 Sunny 82 28 63 17.1 52 52 SSE 13 20 29.74 1007 10 16.0934 0 0
5:35 pm 17:35 Sunny 82 27.7 62 16.7 51 51 S 13 20 29.74 1007 10 16.0934 0 0
5:55 pm 17:55 Sunny 81 27.3 63 17.1 54 54 S 10 17 29.74 1007 10 16.0934 0 0
6:15 pm 18:15 Sunny 81 27 63 17.2 55 55 SSE 9 15 29.74 1007 10 16.0934 0 0
6:35 pm 18:35 Sunny 80 26.4 64 17.9 60 60 SSE 5 7 29.74 1007 10 16.0934 0 0
6:55 pm 18:55 Partly Cloudy 79 26 65 18.2 62 62 SSE 5 7 29.75 1007 10 16.0934 0 0
7:15 pm 19:15 Partly Cloudy 78 25.5 65 18.5 65 65 SSE 6 9 29.75 1008 10 16.0934 0 0
7:35 pm 19:35 Mostly Cloudy 77 25.1 65 18.3 66 66 SE 12 19 29.75 1007 10 16.0934 0 0
7:55 pm 19:55 Partly Cloudy 77 25.1 64 17.7 64 64 SSE 13 20 29.74 1007 10 16.0934 0 0
8:15 pm 20:15 Sunny 78 25.5 64 17.5 61 61 SSE 10 17 29.72 1007 10 16.0934 0 0
8:35 pm 20:35 Sunny with Nearby Thunderstorms 77 24.8 64 18 66 66 SE 6 9 29.74 1007 10 16.0934 0 0
8:55 pm 20:55 Partly Cloudy 75 23.9 65 18.5 72 72 Calm 29.76 1008 10 16.0934 0 0
9:15 pm 21:15 Mostly Cloudy with Nearby Thunderstorms 73 23 65 18.6 76 76 ENE 9 15 29.76 1008 10 16.0934 0 0
9:35 pm 21:35 Mostly Cloudy with Light Rain 76 24.4 62 16.7 62 62 SE 14 22 29.77 1008 10 16.0934 0 0
9:55 pm 21:55 Mostly Cloudy 73 22.7 64 17.8 74 74 SE 10 17 29.79 1009 10 16.0934 0 0
10:15 pm 22:15 Partly Cloudy 73 22.5 63 17.3 73 73 ESE 9 15 29.8 1009 10 16.0934 0 0
10:35 pm 22:35 Partly Cloudy 73 22.5 62 16.8 70 70 ESE 10 17 29.8 1009 10 16.0934 0 0
10:55 pm 22:55 Clear 71 21.5 63 17.2 77 77 ESE 5 7 29.82 1010 10 16.0934 0 0
11:15 pm 23:15 Partly Cloudy 70 21.1 63 17.4 80 80 SSE 6 9 29.82 1010 10 16.0934 0 0
11:35 pm 23:35 Clear 70 21.3 63 17.2 78 78 Calm 29.83 1010 10 16.0934 0 0
11:55 pm 23:55 Partly Cloudy with Light Rain 71 21.7 62 16.9 74 74 S 5 7 29.82 1010 10 16.0934 0 0

Powered by AerisWeather